Location: Poughquag
(41.6090°N, 73.6820°W)
Time: 10:16:47
(UTC-05:00)

Vanguard 1 - Pass Details

Date: 07 December 2023
Orbit: 653 x 3826 km, 34.3° (Epoch: 25 February)

Event Time Altitude Azimuth Distance (km) Brightness Sun altitude
Rises 02:06:05 0° 278° (W) 7,971 - -55.1°
Reaches altitude 10° 02:19:38 10° 248° (WSW) 6,628 - -52.8°
Maximum altitude 02:23:06 11° 239° (WSW) 6,402 - -52.1°
Drops below altitude 10° 02:26:24 10° 229° (SW) 6,255 - -51.5°
Sets 02:37:19 0° 196° (SSW) 6,379 - -49.6°
